STARLINK-32412, 61680

Orbit data source: Space-Track

STARLINK-32412, 61680 is a payload satellite owned by SpaceX/Seattle (US) in LEO that was launched on Sat, 26 Oct 2024 UTC via an FALCON 9 launch vehicle from the Air Force Eastern Test Range (AFETR). Payload-class satellites include a variety of spacecraft equipped with specific instruments for various scientific and technological missions. These include communications satellites like Starlink; space stations such as the ISS; scientific satellites like the Hubble; Earth observation satellites from companies like Planet Labs, Umbra, and HawkEye 360; GPS; miniature CubeSats for education and research; and military/defense satellites.

Loading next visibility...
Identifier
61680, 2024-193V
Orbit
LEO
Last TLE update
5 hours ago
Origin
Manufacturer
SpaceX/Seattle
Mission
Operational Commercial Communications
Bus & Motor
STARLINK V2M, Unknown motor
Mass
730 kg wet, ~700 kg dry
Launch date (UTC)
2024-10-26 (8 months ago)
Launch vehicle
FALCON 9
Launch site
Air Force Eastern Test Range (AFETR)
Object type
Payload
Rocket body
Debris
Shape & HBR
Box + 2 Pan, 29 m
Radar Cross Section
36.964 m², Large (>1 m²)

Expand to show TLE details & history

TLE from 5 hours ago
0 STARLINK-32412
1 61680U 24193V   25189.15550042  .00000013  00000-0  12574-4 0  9994
2 61680  53.1595 147.1032 0001358  75.3026 284.8125 15.30188000 40302
Epoch: 2025-07-08T03:43Z
TLE epoch observation values (Epoch: 2025-07-08T03:43:55.236Z)
Latitude
-0.00003°
Longitude
164.76849°
Altitude
475.913 km
Speed
7.629 km/s
True Right ascension
09h 48m 24s
True Declination
0° 00' 00"
Sunlit
Object was in daylight at epoch
Visualization orbit readout
Latitude
8.88621°
Longitude
170.53828°
Altitude
475.036 km
Speed
7.63 km/s
Apparent Right ascension
09h 30m 58s
Apparent Declination
-14° 48' 35"
Sunlit
Object is in daylight
Visualization observer readout
Local Sidereal Time
20:34:41
Azimuth
329.915° NNW
Elevation
-62.04°
Doppler factor
1
Orbital elements
Apogee altitude
476.438 km
Perigee altitude
474.577 km
Semi-major axis
6,853.644 km
Eccentricity
0.00014
Inclination
53.1595°
RAAN
147.1032°
Arg. of periapsis
75.3026°
True anomaly
Unknown
Mean anomaly
284.8125°
Eccentric anomaly
Unknown
Mean motion
3.82526 °/min
Orbital period
94.11 mins
BSTAR
0.000012574
Loading maneuver chart data...
Loading SW <> Apogee altitude chart data...
Loading historical data...
Loading historical data...
Loading historical data...
Loading historical data...
Loading historical data...
Loading historical data...
Loading historical data...

STARLINK-32412 Visibility forecast

Observer location: undefined°, undefined°

Span
Click to sort rows by Start time (UTC) header in descending order
Start Az.
Max El. time (UTC)
Max El. Az.
Max El.
End time (UTC)
End Az.
4 mins2025-07-08 22:41:58.210Z161.058° S2025-07-08 22:43:58.210Z124.181° SE15.836°2025-07-08 22:45:58.210Z89.631° E
6 mins2025-07-09 00:18:58.210Z249.068° W2025-07-09 00:20:58.210Z293.29° NW38.43°2025-07-09 00:24:58.210Z43.069° NE
5 mins2025-07-09 05:15:58.210Z340.621° N2025-07-09 05:17:58.210Z19.077° NNE19.749°2025-07-09 05:20:58.210Z75.348° E
6 mins2025-07-09 06:53:58.210Z302.133° NW2025-07-09 06:55:58.210Z267.661° W40.757°2025-07-09 06:59:58.210Z140.211° SSE
|